GLOBALSTAR M028 [+]

Last updated on Wed May 04 2016 15:39:28 GMT+0000 (Coordinated Universal Time)

1 25875U 99041D 16125.28490598 -.00000080 00000-0 13649-3 0 9995 2 25875 51.9641 43.9890 0064143 39.7391 320.8144 12.50469727773471

Satellite not in orbit

GLOBALSTAR M028 [+]